Location: Carite
(10.3909°N, 67.0102°W)
Time: 03:40:18
(UTC+00:00)

Iridium 4 Rocket - Pass Details

Date: 08 September 2024
Orbit: 580 x 894 km, 86.9° (Epoch: 09 October)

Event Time Altitude Azimuth Distance (km) Brightness Sun altitude
Rises 23:44:09 0° 13° (NNE) 2,787 6.4 -18.3°
Reaches altitude 10° 23:46:24 10° 21° (NNE) 1,893 5.4 -18.8°
Enters shadow 23:48:27 25° 40° (NE) 1,189 4.2 -19.3°
